Starlink 31602

operational
NORAD ID: 59202 Int'l Des: 2024-046 Owner: SPXS Country: US Constellation: starlink
LEOCIRCULAR

About Starlink 31602

Description loading...

Live Position

Loading 3D Globe...

Upcoming Passes

Altitude History

Altitude vs Time

uPlot chart will show altitude changes over time

Two-Line Element Set

1 59202U 24046B 25310.45622928 .00002203 00000-0 86508-4 0 9991
2 59202 53.1616 7.6251 0001065 65.1134 294.9977 15.30193203 94181
Epoch: Nov 6, 2025 • Age: 29 hours

Current Status

Altitude 480.6 km
Velocity 7.63 km/s
Sub-Earth Point 50.42°N, 163.72°W
Launch Date Mar 11, 2024
Age 1.6 years
Type internet

Technical Details

Classification Payload
Mass 730.00 kg
Dry Mass 700.00 kg
Total Mass 730.00 kg
Length 0.30 m
Diameter 4.10 m
Span 29.00 m
Shape Box + pan
Manufacturer SPXS
Bus Type Starlink V2M
Phase Status In Orbit
Owner/State SPXS/US

Large Constellations

Loading constellations...